time_stamp(utc),avg(mph),gust(mph),direction(deg),12m_air_temp(f),sonic_u(cm/s),sonic_v(cm/s),sonic_w(cm/s),pressure,2m_air_temp(f),pyranometer(W/m^2)
"2019-12-20 00:03:34+00",11.8,12.8,,27.4,-514,166,43,1030.95,26.6,0
"2019-12-20 00:08:34+00",14.8,15.8,,27.3,-603,265,52,1030.92,26.5,0
"2019-12-20 00:13:34+00",12.6,14.6,,27.2,-488,253,49,1030.98,26.5,0
"2019-12-20 00:18:34+00",13.4,14.4,,27.3,-487,283,58,1031.01,26.4,0
"2019-12-20 00:23:34+00",10.7,11.7,,27.2,-381,246,75,1031.08,26.5,0
"2019-12-20 00:28:34+00",13.2,14.2,,27.2,-523,275,31,1031.02,26.4,0
"2019-12-20 00:33:34+00",11.1,14.1,,27.1,-433,252,59,1031.23,26.3,0
"2019-12-20 00:38:34+00",12.8,14.8,,27.1,-411,354,78,1031.33,26.3,0
"2019-12-20 00:43:34+00",10.4,12.4,,26.9,-390,266,50,1031.38,26.3,0
"2019-12-20 00:48:34+00",9.9,12.9,,26.8,-388,240,43,1031.54,26.2,0
"2019-12-20 00:53:34+00",12.5,13.5,,26.9,-487,301,35,1031.52,26.1,0
"2019-12-20 00:58:34+00",11.6,13.6,,26.8,-455,251,51,1031.58,26.1,0
"2019-12-20 01:03:34+00",10.7,12.7,,26.8,-423,241,38,1031.53,26,0
"2019-12-20 01:08:34+00",12.6,14.6,,26.8,-529,242,43,1031.48,26,0
"2019-12-20 01:13:34+00",12.5,14.5,,26.8,-473,290,26,1031.62,25.9,0
"2019-12-20 01:18:34+00",13.0,15.0,,26.8,-473,298,47,1031.69,26,0
"2019-12-20 01:23:34+00",13.4,14.4,,26.8,-507,289,51,1031.64,26,0
"2019-12-20 01:28:34+00",11.1,12.1,,26.5,-380,302,38,1031.66,25.9,0
"2019-12-20 01:33:34+00",11.0,12.0,,26.3,-379,305,32,1031.73,25.8,0
"2019-12-20 01:38:34+00",10.4,11.4,,26.3,-362,289,34,1031.73,25.6,0
"2019-12-20 01:43:34+00",10.7,11.7,,26.2,-383,291,39,1031.8,25.6,0
"2019-12-20 01:48:34+00",10.8,11.8,,26.2,-385,295,28,1031.8,25.5,0
"2019-12-20 01:53:34+00",10.1,12.1,,26.1,-355,281,35,1031.77,25.4,0
"2019-12-20 01:58:34+00",9.5,10.5,,26.1,-331,256,41,1031.68,25.4,0
"2019-12-20 02:03:34+00",10.0,11.0,,26.1,-361,243,28,1031.71,25.3,0
"2019-12-20 02:08:34+00",10.5,13.5,,26.1,-378,281,35,1031.89,25.3,0
"2019-12-20 02:13:34+00",11.5,13.5,,26.1,-420,296,47,1031.8,25.3,0
"2019-12-20 02:18:34+00",11.1,13.1,,26.1,-365,324,64,1031.88,25.4,0
"2019-12-20 02:23:34+00",9.4,11.4,,26.1,-327,265,44,1031.85,25.4,0
"2019-12-20 02:28:34+00",11.0,13.0,,26,-376,329,32,1031.8,25.4,0
"2019-12-20 02:33:34+00",9.8,11.8,,25.8,-344,283,35,1031.89,25.3,0
"2019-12-20 02:38:34+00",10.1,12.1,,25.6,-339,309,36,1032.07,25.1,0
"2019-12-20 02:43:34+00",10.5,13.5,,25.6,-343,294,41,1032.15,25,0
"2019-12-20 02:48:34+00",10.8,12.8,,25.4,-362,308,40,1032.22,24.9,0
"2019-12-20 02:53:34+00",10.3,11.3,,25.4,-354,291,29,1032.1,24.8,0
"2019-12-20 02:58:34+00",11.2,12.2,,25.6,-412,260,27,1031.98,24.7,0
"2019-12-20 03:03:34+00",10.7,11.7,,25.7,-409,262,42,1031.95,24.8,0
"2019-12-20 03:08:34+00",11.6,12.6,,25.8,-441,261,42,1032,24.9,0
"2019-12-20 03:13:34+00",11.1,13.1,,25.9,-446,222,34,1032.18,24.9,0
"2019-12-20 03:18:34+00",11.6,13.6,,26,-423,276,40,1032.14,25,0
"2019-12-20 03:23:34+00",11.1,12.1,,26.1,-417,213,49,1032.25,25.1,0
"2019-12-20 03:28:34+00",10.9,12.9,,25.9,-452,191,30,1032.27,25.1,0
"2019-12-20 03:33:34+00",11.5,13.5,,25.9,-498,165,37,1032.17,25,0
"2019-12-20 03:38:34+00",9.6,10.6,,25.8,-406,144,36,1032.31,25,0
"2019-12-20 03:43:34+00",11.1,13.1,,25.8,-475,176,45,1032.35,25,0
"2019-12-20 03:48:34+00",10.5,12.5,,25.7,-443,154,39,1032.48,25,0
"2019-12-20 03:53:34+00",10.8,11.8,,25.7,-480,115,49,1032.37,25,0
"2019-12-20 03:58:34+00",9.9,11.9,,25.7,-429,124,33,1032.38,25,0
"2019-12-20 04:03:34+00",9.8,10.8,,25.7,-424,76,46,1032.41,25,0
"2019-12-20 04:08:34+00",12.0,13.0,,25.4,-536,103,35,1032.41,24.9,0
"2019-12-20 04:13:34+00",9.8,11.8,,25.3,-411,145,42,1032.33,24.8,0
"2019-12-20 04:18:34+00",10.1,12.1,,25.4,-433,141,37,1032.27,24.7,0
"2019-12-20 04:23:34+00",11.1,14.1,,25.3,-455,186,32,1032.4,24.7,0
"2019-12-20 04:28:34+00",12.4,14.4,,25.3,-516,207,40,1032.34,24.6,0
"2019-12-20 04:33:34+00",12.4,13.4,,25.3,-537,195,40,1032.32,24.6,0
"2019-12-20 04:38:34+00",9.9,10.9,,25.4,-433,113,41,1032.31,24.7,0
"2019-12-20 04:43:34+00",9.3,10.3,,25.6,-396,121,69,1032.2,24.7,0
"2019-12-20 04:48:34+00",10.8,11.8,,25.4,-475,41,32,1032.24,24.8,0
"2019-12-20 04:53:34+00",11.8,13.8,,25.1,-514,92,30,1032.1,24.7,0
"2019-12-20 04:58:34+00",10.9,11.9,,25.2,-472,98,45,1032.11,24.7,0
"2019-12-20 05:03:34+00",8.9,9.9,,25.2,-391,46,21,1031.98,24.7,0
"2019-12-20 05:08:34+00",10.6,12.6,,25.3,-463,84,34,1031.96,24.7,0
"2019-12-20 05:13:34+00",11.2,12.2,,25.5,-491,93,36,1031.82,24.7,0
"2019-12-20 05:18:34+00",12.7,13.7,,25.4,-556,96,35,1031.82,24.8,0
"2019-12-20 05:23:34+00",13.1,14.1,,25.5,-561,164,42,1031.94,24.9,0
"2019-12-20 05:28:34+00",13.5,14.5,,25.7,-562,248,28,1031.91,25,0
"2019-12-20 05:33:34+00",13.4,15.4,,25.8,-556,226,26,1031.9,25,0
"2019-12-20 05:38:34+00",12.5,14.5,,25.7,-525,213,41,1031.99,25.1,0
"2019-12-20 05:43:34+00",11.6,12.6,,25.7,-495,181,50,1031.98,25.2,0
"2019-12-20 05:48:34+00",11.9,13.9,,25.6,-509,221,29,1031.96,25.2,0
"2019-12-20 05:53:34+00",13.3,15.3,,25.6,-535,263,28,1031.95,25.3,0
"2019-12-20 05:58:34+00",14.1,15.1,,25.6,-564,285,35,1031.95,25.3,0
"2019-12-20 06:03:34+00",12.5,13.5,,25.6,-487,240,55,1032.03,25.3,0
"2019-12-20 06:08:34+00",12.6,14.6,,25.7,-506,221,49,1032.11,25.4,0
"2019-12-20 06:13:34+00",13.5,14.5,,25.7,-567,241,36,1032.17,25.4,0
"2019-12-20 06:18:34+00",12.3,13.3,,25.9,-492,232,29,1032.2,25.6,0
"2019-12-20 06:23:34+00",14.5,15.5,,26.3,-436,169,161,1032.24,25.7,0
"2019-12-20 06:28:34+00",12.2,14.2,,26.2,-374,358,53,1032.37,25.8,0
"2019-12-20 06:33:34+00",14.9,15.9,,25.8,-534,378,49,1032.36,25.6,0
"2019-12-20 06:38:34+00",11.1,12.1,,25.6,-343,343,40,1032.45,25.4,0
"2019-12-20 06:43:34+00",13.0,14.0,,25,-417,399,40,1032.44,25,0
"2019-12-20 06:48:34+00",11.7,13.7,,25,-389,360,42,1032.59,24.8,0
"2019-12-20 06:53:34+00",10.4,13.4,,25,-345,281,50,1032.62,24.7,0
"2019-12-20 06:58:34+00",12.0,14.0,,25.1,-417,331,48,1032.62,24.6,0
"2019-12-20 07:03:34+00",13.4,15.4,,25.2,-456,398,36,1032.61,24.7,0
"2019-12-20 07:08:34+00",14.5,15.5,,25.2,-459,439,42,1032.69,24.7,0
"2019-12-20 07:13:34+00",13.4,15.4,,25.1,-432,412,37,1032.77,24.7,0
"2019-12-20 07:18:34+00",12.6,14.6,,25.1,-443,358,38,1032.91,24.6,0
"2019-12-20 07:23:34+00",12.6,14.6,,25.1,-424,360,50,1032.92,24.6,0
"2019-12-20 07:28:34+00",13.0,15.0,,25.2,-460,363,33,1032.87,24.6,0
"2019-12-20 07:33:34+00",11.8,13.8,,25.2,-393,363,48,1032.88,24.7,0
"2019-12-20 07:38:34+00",12.3,15.3,,25.4,-391,391,54,1032.89,24.8,0
"2019-12-20 07:43:34+00",12.2,14.2,,25.3,-327,424,49,1032.83,24.8,0
"2019-12-20 07:48:34+00",10.5,12.5,,24.9,-242,390,25,1032.84,24.6,0
"2019-12-20 07:53:34+00",11.3,12.3,,24.1,-209,448,20,1032.81,23.9,0
"2019-12-20 07:58:34+00",10.6,12.6,,23.6,-187,437,17,1032.69,23.4,0
"2019-12-20 08:03:34+00",10.8,11.8,,23.5,-184,441,20,1032.67,23,0
"2019-12-20 08:08:34+00",10.0,11.0,,23.4,-186,384,13,1032.78,22.7,0
"2019-12-20 08:13:34+00",9.5,10.5,,23.5,-185,371,9,1032.83,22.6,0
"2019-12-20 08:18:34+00",9.4,10.4,,23.8,-212,362,26,1032.88,22.7,0
"2019-12-20 08:23:34+00",10.8,12.8,,23.9,-254,403,26,1032.97,22.8,0
"2019-12-20 08:28:34+00",10.0,12.0,,23.9,-238,357,32,1032.92,23,0
"2019-12-20 08:33:34+00",10.9,12.9,,23.9,-268,382,22,1032.93,23,0
"2019-12-20 08:38:34+00",11.4,12.4,,23.9,-294,412,37,1032.95,23.2,0
"2019-12-20 08:43:34+00",10.6,11.6,,23.9,-263,389,24,1032.97,23.2,0
"2019-12-20 08:48:34+00",10.0,11.0,,23.8,-250,352,29,1033.02,23.1,0
"2019-12-20 08:53:34+00",9.3,10.3,,24,-251,318,27,1033.12,23,0
"2019-12-20 08:58:34+00",10.1,12.1,,24.2,-292,340,29,1033.12,23.1,0
"2019-12-20 09:03:34+00",9.6,11.6,,24.5,-284,311,31,1033.11,23.4,0
"2019-12-20 09:08:34+00",11.9,13.9,,24.6,-350,386,27,1033.12,23.6,0
"2019-12-20 09:13:34+00",10.4,12.4,,24.6,-314,340,39,1033.13,23.8,0
"2019-12-20 09:18:34+00",13.1,14.1,,24.7,-402,417,27,1033.11,23.9,0
"2019-12-20 09:23:34+00",10.2,11.2,,24.7,-321,323,33,1033.15,24,0
"2019-12-20 09:28:34+00",10.6,12.6,,24.8,-339,335,34,1033.16,24.1,0
"2019-12-20 09:33:34+00",11.5,12.5,,24.7,-340,374,33,1033.22,24.1,0
"2019-12-20 09:38:34+00",12.4,14.4,,24.8,-363,410,29,1033.22,24.1,0
"2019-12-20 09:43:34+00",12.0,13.0,,24.9,-380,376,31,1033.28,24.1,0
"2019-12-20 09:48:34+00",11.2,13.2,,25,-360,335,28,1033.39,24.3,0
"2019-12-20 09:53:34+00",10.5,11.5,,24.9,-356,311,35,1033.41,24.3,0
"2019-12-20 09:58:34+00",11.5,13.5,,24.7,-372,338,35,1033.48,24.2,0
"2019-12-20 10:03:34+00",10.5,12.5,,24.4,-365,324,33,1033.57,24,0
"2019-12-20 10:08:34+00",10.8,11.8,,24.3,-350,334,32,1033.63,23.9,0
"2019-12-20 10:13:34+00",10.5,12.5,,24.4,-335,313,47,1033.67,23.8,0
"2019-12-20 10:18:34+00",12.9,14.9,,24.3,-417,386,33,1033.66,23.8,0
"2019-12-20 10:23:34+00",12.7,14.7,,24.4,-399,394,41,1033.63,23.8,0
"2019-12-20 10:28:34+00",12.5,14.5,,24.4,-397,397,35,1033.56,23.9,0
"2019-12-20 10:33:34+00",10.4,12.4,,24.4,-335,335,47,1033.63,23.9,0
"2019-12-20 10:38:34+00",11.7,13.7,,24.4,-371,360,47,1033.57,23.9,0
"2019-12-20 10:43:34+00",11.4,13.4,,24.3,-358,356,38,1033.64,23.8,0
"2019-12-20 10:48:34+00",12.5,13.5,,24.2,-418,374,34,1033.71,23.7,0
"2019-12-20 10:53:34+00",10.7,12.7,,24.2,-370,301,48,1033.67,23.7,0
"2019-12-20 10:58:34+00",11.6,13.6,,24.5,-385,339,52,1033.78,23.8,0
"2019-12-20 11:03:34+00",11.9,13.9,,24.6,-356,397,36,1033.92,23.9,0
"2019-12-20 11:08:34+00",11.0,12.0,,24,-349,357,32,1033.99,23.7,0
"2019-12-20 11:13:34+00",12.3,13.3,,23.4,-274,464,21,1034.21,23.3,0
"2019-12-20 11:18:34+00",9.4,10.4,,22.3,-242,336,22,1034.12,22.6,0
"2019-12-20 11:23:34+00",11.0,12.0,,22.2,-291,384,22,1034.28,22,0
"2019-12-20 11:28:34+00",9.2,11.2,,22.3,-277,305,16,1034.28,21.7,0
"2019-12-20 11:33:34+00",10.8,11.8,,23,-356,329,24,1034.22,22,0
"2019-12-20 11:38:34+00",11.0,13.0,,23.3,-380,321,32,1034.14,22.4,0
"2019-12-20 11:43:34+00",11.3,13.3,,23.7,-385,320,34,1034.14,22.7,0
"2019-12-20 11:48:34+00",12.8,14.8,,23.7,-436,376,51,1034.18,23,0
"2019-12-20 11:53:34+00",9.6,11.6,,23.7,-316,265,56,1034.27,23.1,0
"2019-12-20 11:58:34+00",12.8,14.8,,23.8,-396,414,38,1034.34,23.1,0
"2019-12-20 12:03:34+00",11.8,13.8,,23.8,-397,354,34,1034.34,23.2,0
"2019-12-20 12:08:34+00",12.8,13.8,,23.7,-394,411,43,1034.44,23.2,0
"2019-12-20 12:13:34+00",14.9,15.9,,23.7,-451,487,32,1034.56,23.2,0
"2019-12-20 12:18:34+00",12.4,14.4,,23.5,-314,442,47,1034.69,23.1,0
"2019-12-20 12:23:34+00",12.8,14.8,,22.6,-302,483,23,1034.79,22.7,0
"2019-12-20 12:28:34+00",11.1,12.1,,22,-262,414,31,1034.86,22.2,0
"2019-12-20 12:33:34+00",11.7,12.7,,21.9,-280,437,31,1034.94,21.9,0
"2019-12-20 12:38:34+00",11.1,12.1,,22,-249,423,25,1035.02,22,0
"2019-12-20 12:43:34+00",10.4,12.4,,22.1,-247,378,24,1035.08,22.1,0
"2019-12-20 12:48:34+00",11.8,13.8,,22.3,-299,424,18,1035.17,22.4,0
"2019-12-20 12:53:34+00",11.4,13.4,,22.5,-256,430,20,1035.23,22.7,0
"2019-12-20 12:58:34+00",11.8,13.8,,22.7,-261,435,21,1035.23,23,0
"2019-12-20 13:03:34+00",11.0,13.0,,23,-253,422,35,1035.23,23.3,0.1
"2019-12-20 13:08:34+00",11.8,15.8,,23.3,-288,448,24,1035.25,23.6,1.9
"2019-12-20 13:13:34+00",11.8,12.8,,23.6,-302,427,23,1035.22,24.1,10.8
"2019-12-20 13:18:34+00",13.0,15.0,,23.9,-343,410,61,1035.25,24.5,13.4
"2019-12-20 13:23:34+00",13.4,14.4,,24.2,-311,343,103,1035.28,24.8,21
"2019-12-20 13:28:34+00",13.0,15.0,,24.5,-192,214,182,1035.24,25.1,32.5
"2019-12-20 13:33:34+00",11.2,12.2,,24.8,-204,351,83,1035.19,25.5,41.5
"2019-12-20 13:38:34+00",12.0,13.0,,25,-337,379,42,1035.03,25.9,51.4
"2019-12-20 13:43:34+00",11.3,13.3,,25.2,-240,340,68,1035,26.2,61.7
"2019-12-20 13:48:34+00",12.7,14.7,,25.4,-188,256,166,1035.01,26.5,71.1
"2019-12-20 13:53:34+00",12.3,14.3,,25.6,-116,166,211,1035.14,26.8,80.8
"2019-12-20 13:58:34+00",12.2,13.2,,25.8,-125,208,173,1035.1,27.1,88.1
"2019-12-20 14:03:34+00",12.3,13.3,,25.9,-279,360,69,1035.12,27.4,97.4
"2019-12-20 14:08:34+00",11.2,12.2,,26.2,-312,329,52,1035.14,27.5,103.3
"2019-12-20 14:13:34+00",14.3,16.3,,26.4,94,-240,483,1035.21,27.8,111.4
"2019-12-20 14:18:34+00",14.6,16.6,,26.4,-225,332,163,1035.14,27.9,116.6
"2019-12-20 14:23:34+00",13.4,16.4,,26.6,-192,311,155,1035.1,28.1,123.5
"2019-12-20 14:28:34+00",14.8,15.8,,26.6,7,3,338,1035.09,28.1,131.5
"2019-12-20 14:33:34+00",12.4,15.4,,26.7,-169,296,123,1035.06,28.3,137.5
"2019-12-20 14:38:34+00",13.1,15.1,,26.9,-316,412,56,1035.04,28.4,136
"2019-12-20 14:43:34+00",13.7,15.7,,27.2,-314,474,51,1035.18,28.7,148.3
"2019-12-20 14:48:34+00",13.6,15.6,,26.9,-250,507,44,1035.2,28.7,148.4
"2019-12-20 14:53:34+00",12.1,15.1,,27.4,-333,433,36,1035.25,28.9,156.7
"2019-12-20 14:58:34+00",13.1,15.1,,27.5,-319,479,10,1035.23,29,160.2
"2019-12-20 15:03:34+00",13.1,14.1,,27.9,-343,446,31,1035.23,29.4,166.4
"2019-12-20 15:08:34+00",13.3,15.3,,28.1,-417,406,46,1035.15,29.7,169.9
"2019-12-20 15:13:34+00",15.2,17.2,,28.2,-441,476,67,1035.26,29.9,175.3
"2019-12-20 15:18:34+00",15.3,17.3,,28.6,-457,510,46,1035.29,30.3,178.8
"2019-12-20 15:23:34+00",16.5,19.5,,28.9,-436,584,35,1035.3,30.5,182.5
"2019-12-20 15:28:34+00",14.4,16.4,,29.2,-162,107,274,1035.11,30.8,185.1
"2019-12-20 15:33:34+00",12.3,14.3,,29.3,-237,316,102,1035.07,31.2,190.8
"2019-12-20 15:38:34+00",15.7,17.7,,29.6,-62,18,360,1034.91,31.6,190.3
"2019-12-20 15:43:34+00",12.5,13.5,,29.6,-255,448,37,1034.84,31.7,193.1
"2019-12-20 15:48:34+00",13.9,15.9,,29.8,-65,38,301,1034.73,31.8,197.2
"2019-12-20 15:53:34+00",12.5,15.5,,30.3,-193,379,130,1034.55,32.1,196.4
"2019-12-20 15:58:34+00",12.2,15.2,,30.7,-226,386,115,1034.5,32.6,192.7
"2019-12-20 16:03:34+00",13.0,14.0,,30.6,-215,419,82,1034.33,32.8,159.2
"2019-12-20 16:08:34+00",13.1,15.1,,30.6,-220,28,248,1034.19,32.8,202.3
"2019-12-20 16:13:34+00",15.1,18.1,,30.6,-339,63,250,1034.13,32.7,204.6
"2019-12-20 16:18:34+00",14.5,16.5,,30.7,-200,22,284,1034.06,32.7,207.3
"2019-12-20 16:23:34+00",14.1,17.1,,31.1,-107,82,303,1033.92,32.8,205.1
"2019-12-20 16:28:34+00",14.3,16.3,,31,-19,-174,417,1034.06,33.1,205.8
"2019-12-20 16:33:34+00",13.2,15.2,,31.2,-121,-25,350,1034,33.1,207.6
"2019-12-20 16:38:34+00",14.7,17.7,,31.4,24,-338,525,1033.91,33.4,207.1
"2019-12-20 16:43:34+00",14.4,16.4,,31.5,-78,-134,408,1033.8,33.4,206.2
"2019-12-20 16:48:34+00",15.8,18.8,,31.5,304,-830,801,1033.93,33.5,207.5
"2019-12-20 16:53:34+00",13.7,15.7,,31.8,-65,-168,416,1033.99,33.7,206.5
"2019-12-20 16:58:34+00",12.9,14.9,,32.1,-43,-216,443,1033.91,33.9,206.1
"2019-12-20 17:03:34+00",14.8,16.8,,31.9,467,-1005,920,1033.89,33.9,205.3
"2019-12-20 17:08:34+00",16.6,17.6,,31.9,1341,-2709,1835,1033.77,34,205.9
"2019-12-20 17:13:34+00",15.6,18.6,,32.4,1043,-2275,1601,1033.61,34.3,201.6
"2019-12-20 17:18:34+00",16.1,18.1,,32.2,835,-1721,1295,1033.53,34.3,202.5
"2019-12-20 17:23:34+00",14.0,16.0,,32.2,435,-1052,884,1033.57,34.3,201.1
"2019-12-20 17:28:34+00",13.0,14.0,,32.7,53,-346,485,1033.6,34.7,196.7
"2019-12-20 17:33:34+00",10.0,13.0,,32.8,-177,370,47,1033.46,34.9,197.1
"2019-12-20 17:38:34+00",14.1,15.1,,32.8,375,-914,810,1033.48,35.2,193.5
"2019-12-20 17:43:34+00",12.3,14.3,,32.9,24,-265,436,1033.42,35.2,192.5
"2019-12-20 17:48:34+00",14.4,15.4,,32.8,-81,274,210,1033.49,35.1,189.2
"2019-12-20 17:53:34+00",12.3,15.3,,33.2,-32,-88,381,1033.4,35.3,185.4
"2019-12-20 17:58:34+00",13.7,15.7,,33.2,-388,1089,-263,1033.32,35.3,183.7
"2019-12-20 18:03:34+00",12.9,13.9,,33.2,-226,627,-68,1033.31,35.6,179.3
"2019-12-20 18:08:34+00",13.3,15.3,,33.2,166,-755,663,1033.28,35.6,174.8
"2019-12-20 18:13:34+00",14.9,16.9,,33.3,608,-1420,1099,1033.26,35.5,171.7
"2019-12-20 18:18:34+00",12.3,15.3,,33.4,-168,248,146,1033.27,35.4,169.6
"2019-12-20 18:23:34+00",14.5,17.5,,33.4,208,-591,645,1033.19,35.3,164.1
"2019-12-20 18:28:34+00",13.8,16.8,,33.9,-296,664,-34,1033.16,35.5,160.3
"2019-12-20 18:33:34+00",14.5,16.5,,33.7,-16,-7,364,1033.23,35.5,157.2
"2019-12-20 18:38:34+00",15.1,17.1,,33.7,-229,483,112,1033.14,35.5,151.2
"2019-12-20 18:43:34+00",14.2,16.2,,33.9,-473,1087,-289,1033.14,35.7,145.9
"2019-12-20 18:48:34+00",17.2,18.2,,33.8,888,-1956,1430,1033.08,35.6,140.9
"2019-12-20 18:53:34+00",15.8,17.8,,33.7,231,-672,730,1033.09,35.4,135.9
"2019-12-20 18:58:34+00",15.3,17.3,,33.8,238,-617,704,1033.07,35.4,128.4
"2019-12-20 19:03:34+00",13.8,15.8,,34,-17,-41,381,1033.12,35.6,123.1
"2019-12-20 19:08:34+00",16.6,18.6,,33.7,1209,-2800,1832,1032.96,35.6,116.3
"2019-12-20 19:13:34+00",13.4,15.4,,34.1,-1,-105,398,1033.11,35.7,109
"2019-12-20 19:18:34+00",12.3,14.3,,33.8,-7,-174,378,1033.18,35.7,101.6
"2019-12-20 19:23:34+00",13.8,16.8,,34.1,262,-736,755,1033.2,35.7,94.6
"2019-12-20 19:28:34+00",14.1,15.1,,34.2,124,-507,597,1033.25,35.8,87.5
"2019-12-20 19:33:34+00",15.3,16.3,,34.3,-378,929,-165,1033.26,35.9,81.3
"2019-12-20 19:38:34+00",15.3,16.3,,34.3,408,-903,864,1033.21,36,72.6
"2019-12-20 19:43:34+00",11.5,14.5,,34.4,-230,610,-33,1033.38,36,62.2
"2019-12-20 19:48:34+00",13.7,15.7,,34.4,-132,249,184,1033.25,36,54.9
"2019-12-20 19:53:34+00",13.7,16.7,,34.6,-225,561,4,1033.26,36.1,44.7
"2019-12-20 19:58:34+00",13.7,16.7,,34.6,-204,444,89,1033.32,36.1,38
"2019-12-20 20:03:34+00",14.9,15.9,,34.6,-351,986,-209,1033.54,36,27.8
"2019-12-20 20:08:34+00",12.6,14.6,,34.5,-274,844,-186,1033.51,36.2,19.8
"2019-12-20 20:13:34+00",13.9,15.9,,34.5,51,-223,444,1033.56,36.2,11.9
"2019-12-20 20:18:34+00",13.7,15.7,,34.3,-37,55,300,1033.69,35.8,4.2
"2019-12-20 20:23:34+00",11.0,13.0,,34.5,-228,596,-61,1033.87,35.7,0.1
"2019-12-20 20:28:34+00",15.1,17.1,,34.4,-200,835,-120,1034.1,35.8,0
"2019-12-20 20:33:34+00",12.9,14.9,,34.3,-146,464,82,1034.04,35.9,0
"2019-12-20 20:38:34+00",12.3,15.3,,34.3,-335,851,-181,1034.09,35.6,0
"2019-12-20 20:43:34+00",14.2,16.2,,34.3,-214,583,20,1034.2,35.4,0
"2019-12-20 20:48:34+00",12.9,13.9,,34.2,-255,684,-73,1034.26,35.2,0
"2019-12-20 20:53:34+00",11.1,13.1,,34.2,-27,384,82,1034.46,35.2,0
"2019-12-20 20:58:34+00",12.3,13.3,,34.1,-119,293,143,1034.43,34.9,0
"2019-12-20 21:03:34+00",11.4,13.4,,34,-116,309,119,1034.74,34.6,0
"2019-12-20 21:08:34+00",10.0,11.0,,33.9,-139,350,50,1034.89,34.2,0
"2019-12-20 21:13:34+00",10.1,11.1,,33.6,-117,386,41,1034.82,33.8,0
"2019-12-20 21:18:34+00",9.1,10.1,,33.5,-178,336,31,1034.99,33.3,0
"2019-12-20 21:23:34+00",10.6,12.6,,33.2,-153,235,124,1035.08,32.9,0
"2019-12-20 21:28:34+00",11.7,12.7,,33.2,-190,275,125,1035.23,32.6,0
"2019-12-20 21:33:34+00",10.7,11.7,,33.1,-203,290,85,1035.34,32.2,0
"2019-12-20 21:38:34+00",9.5,11.5,,32.9,-186,352,23,1035.32,32,0
"2019-12-20 21:43:34+00",9.0,10.0,,32.6,-164,286,61,1035.47,31.6,0
"2019-12-20 21:48:34+00",9.8,10.8,,32.5,-154,368,36,1035.58,31.3,0
"2019-12-20 21:53:34+00",9.2,11.2,,32.5,-108,322,57,1035.55,31.1,0
"2019-12-20 21:58:34+00",9.3,10.3,,32.2,-155,350,31,1035.79,30.7,0
"2019-12-20 22:03:34+00",8.8,9.8,,32,-121,332,33,1035.83,30.3,0
"2019-12-20 22:08:34+00",8.7,9.7,,32.1,-136,315,36,1035.83,29.9,0
"2019-12-20 22:13:34+00",8.5,9.5,,32,-144,329,16,1035.94,29.6,0
"2019-12-20 22:18:34+00",8.7,9.7,,31.9,-178,328,23,1035.96,29.3,0
"2019-12-20 22:23:34+00",9.8,9.8,,32.2,-164,257,87,1036.02,29.2,0
"2019-12-20 22:28:34+00",10.4,11.4,,32.2,-194,218,115,1036.04,29.3,0
"2019-12-20 22:33:34+00",9.8,10.8,,32.2,-176,257,84,1036.1,29.6,0
"2019-12-20 22:38:34+00",10.5,11.5,,32.1,-180,227,112,1036.23,29.9,0
"2019-12-20 22:43:34+00",10.6,11.6,,32.2,-189,196,134,1036.38,30.2,0
"2019-12-20 22:48:34+00",9.9,10.9,,32.1,-155,163,141,1036.56,30.4,0
"2019-12-20 22:53:34+00",10.3,12.3,,32.1,-215,219,109,1036.63,30.6,0
"2019-12-20 22:58:34+00",10.4,11.4,,32.1,-247,282,84,1036.56,30.7,0
"2019-12-20 23:03:34+00",9.8,11.8,,31.9,-236,305,64,1036.65,30.6,0
"2019-12-20 23:08:34+00",9.6,10.6,,31.7,-238,335,32,1036.67,30.4,0
"2019-12-20 23:13:34+00",9.7,10.7,,31.2,-187,271,72,1036.71,30.1,0
"2019-12-20 23:18:34+00",9.2,10.2,,31,-187,262,60,1036.62,29.6,0
"2019-12-20 23:23:34+00",6.7,7.7,,30.6,-118,236,24,1036.75,29.2,0
"2019-12-20 23:28:34+00",6.8,6.8,,30.4,-184,218,17,1036.85,28.9,0
"2019-12-20 23:33:34+00",7.2,8.2,,30.6,-189,181,45,1036.9,28.5,0
"2019-12-20 23:38:34+00",6.6,7.6,,30.6,-183,187,29,1036.94,28.4,0
"2019-12-20 23:43:34+00",7.1,8.1,,30.7,-176,174,49,1036.94,28.4,0
"2019-12-20 23:48:34+00",7.7,8.7,,30.7,-193,157,72,1037,28.5,0
"2019-12-20 23:53:34+00",7.3,8.3,,30.8,-187,154,67,1037.01,28.6,0
"2019-12-20 23:58:34+00",6.6,7.6,,30.7,-157,135,55,1037,28.8,0
